Regional Weather Roundup
Issued by NWS Charleston, SC

Current Version | Previous Version | Text Only | Print | Product List | Glossary Off
Versions: 1 2 3 4 5 6 7 8 9 10 11 12 13 14 15 16 17 18 19 20 21 22 23 24 25 26 27 28 29 30 31 32 33 34 35 36 37 38 39 40 41 42 43 44 45 46 47 48 49 50

000
ASUS42 KCHS 300112
RWRCHS

REGIONAL WEATHER ROUNDUP
NATIONAL WEATHER SERVICE CHARLESTON SC
900 PM EDT WED MAR 29 2017

NOTE: "FAIR" INDICATES FEW OR NO CLOUDS BELOW 12,000 FEET WITH NO
SIGNIFICANT WEATHER AND/OR OBSTRUCTIONS TO VISIBILITY.

NOT ALL STATIONS ARE QUALITY CONTROLLED. USE DATA WITH CAUTION...
ESPECIALLY DEWPOINT OBSERVATIONS.

SCZ027-030-031-034>040-042>050-300200-
...SOUTHEAST SOUTH CAROLINA...

CITY           SKY/WX    TMP DP  RH WIND       PRES   REMARKS
N CHARLESTON   MOCLDY    67  63  87 E9        30.04R
WATERFRONT PRK   N/A     66  65  96 E12       30.03R
JOHNS ISLAND   MOCLDY    66  66 100 NE8       30.04S
PINOPOLIS        N/A    N/A N/A N/A SE5       29.95R
MONCKS CORNER  FAIR      66  57  72 SE7       30.04R
SUMMERVILLE    FAIR      70  59  68 E7        30.04R
BEAUFORT MCAS  PTCLDY    68  64  87 E8        30.02R
BEAUFORT ARPT  FAIR      64  63  94 E5        30.02R
HILTON HEAD IS CLEAR     64  63  94 CALM      30.03R
WALTERBORO     MOCLDY    70  59  68 SE7       30.03R
ALLENDALE      FAIR      72  55  56 CALM      29.99R

...SOUTHERN MIDLANDS AND PEE DEE...

CITY           SKY/WX    TMP DP  RH WIND       PRES   REMARKS
GEORGETOWN     MOCLDY    61  59  94 E8        30.09R
KINGSTREE      FAIR      64  57  77 E14G21    30.06R
ORANGEBURG     CLEAR     73  50  44 NE3       30.01R
BARNWELL       FAIR      72  55  56 CALM      30.00R
AIKEN          FAIR      68  52  56 CALM      30.04R
MANNING        FAIR      68  57  68 E5        30.04R
COLUMBIA       PTCLDY    75  51  43 CALM      30.00R
SUMTER         CLEAR     70  53  54 NE5       30.00R
FLORENCE       CLEAR     68  58  70 SE12      30.06R
MYRTLE BEACH   MOCLDY    63  57  82 E12       30.10R
N MYRTLE BEACH PTCLDY    62  56  80 E9        30.09R

$$

GAZ063-065-086>088-099>101-113>116-118-119-134>141-150-300200-
...SOUTHEAST GEORGIA...

CITY           SKY/WX    TMP DP  RH WIND       PRES   REMARKS
SAVANNAH ARPT  MOCLDY    71  56  58 S5        30.01R
HUNTER AAF     CLEAR     68  63  84 CALM      29.99R
FORT STEWART   PTCLDY    69  58  65 CALM      29.99R
STATESBORO     CLEAR     70  62  76 CALM      29.99S
SYLVANIA       PTCLDY   N/A N/A N/A CALM      30.01R
CLAXTON        FAIR     N/A N/A N/A E3        30.00R

...CSRA...CENTRAL AND FAR SOUTHEAST GEORGIA...

CITY           SKY/WX    TMP DP  RH WIND       PRES   REMARKS
THOMSON        CLEAR     70  55  60 S3        30.04S
AUGUSTA-BUSH   CLEAR     67  57  70 CALM      29.98R
AUGUSTA-DANIEL CLEAR     77  51  40 E5        30.00R
SWAINSBORO     FAIR      72  59  64 CALM      30.00R
VIDALIA        PTCLDY    73  61  64 CALM      29.99R
EASTMAN        MOCLDY    78  50  37 CALM      30.01R
HAZLEHURST     FAIR      72  72 100 CALM      29.98R
ALMA           CLOUDY    76  64  66 SE3       29.98R
WAYCROSS       LGT RAIN  74  71  88 S7        29.99S
JESUP          MOCLDY    73  63  68 S5        30.00R
BAXLEY         CLOUDY    77  70  78 CALM      29.98S
BRUNSWICK      PTCLDY    70  66  88 E3        30.02R
SAINT SIMONS   CLEAR     69  65  86 E6        30.01R

$$

SCZ027-028-034-036>038-045-046-048>050-GAZ119-141-300200-
...LAKE AND SUPPLEMENTAL COASTAL OBSERVATIONS...

STATION/POSITION TIME  TEMP    WIND        PRES    WAVE   SWELL
                       AIR SEA DIR/SP/G            HT/PER HT/PER/DIR
                 (UTC) (F)     (DEG/KT/KT) (MB)    (FT/S) (FT/S/D)
WINYAH BAY       NOT AVBL
LAKE MURRAY      0020   72        CALM     1015.2
ACE BASIN NERRS  NOT AVBL
FORT PULASKI     0042   66 67  140/  3/  4 1016.6R
SAPELO ISLAND    0000   68     120/  2     1016.0

$$

ANZ835-935-AMZ111-154-330-350-352-354-370-450-454-472-300200-
...C-MAN AND BUOY OBSERVATIONS...

STATION/POSITION TIME  TEMP    WIND        PRES    WAVE   SWELL
                       AIR SEA DIR/SP/G            HT/PER HT/PER/DIR
                 (UTC) (F)     (DEG/KT/KT) (MB)    (FT/S) (FT/S/D)
BUOY 41004       0050   71 68   80/ 10/ 12 1016.8R   4/10   3/100/10
BUOY 41008       0050   66 66  120/  8/ 10 1015.8F   3/10   3/140/10
FOLLY BEACH CMAN 0000   64      50/  9/ 11 1017.5R
CAPERS NEARSHORE NOT AVBL
FRIPP NEARSHORE  0008   64 63   90/  6/  6 1016.0R


STATION/POSITION TIME  TEMP    WIND        PRES    WAVE   SWELL
                       AIR SEA DIR/SP/G            HT/PER HT/PER/DIR
                 (UTC) (F)     (DEG/KT/KT) (MB)    (FT/S) (FT/S/D)
5E ST. MARYS GA  0030      69                N/A     3/10   2/110/11
FRYING PAN BUOY  0044      74                N/A     6/ 6   3/140/10
BUOY 41025       0050   59 74   30/ 21/ 27 1019.6R   7/ 8   3/ 10/15
CAPE LOOKOUT NC  0000   60      50/ 17/ 20 1018.8R
BUOY 41002       0050   70 72   50/ 17/ 19 1016.6R   5/10   5/110/10
BUOY 41010       NOT AVBL
ST AUGUSTINE FL  0100   71 71  170/  9/ 10 1017.0R


$$




USA.gov is the U.S. government's official web portal to all federal, state and local government web resources and services.